Location: Castelbiague
(43.0361°N, 0.9246°E)
Time: 15:27:03
(UTC+00:00)

H-2A R/B - Pass Details

Date: 17 June 2021
Orbit: 574 x 597 km, 98.2° (Epoch: 30 July)

Event Time Altitude Azimuth Distance (km) Brightness Sun altitude
Rises 22:07:50 0° 10° (N) 2,795 7.8 -18.9°
Reaches altitude 10° 22:10:00 10° 8° (N) 1,891 6.8 -19.1°
Maximum altitude 22:14:04 70° 286° (WNW) 615 3.6 -19.4°
Enters shadow 22:15:47 33° 211° (SSW) 971 4.2 -19.6°
